Total_Precipitation_Accumulation
0.00 0.00 0.00 0.00 0.00 0.00 0.00 0.00 0.00 0.01 0.04 0.10 0.05 0.15 0.07 0.12 0.35 0.65 0.61 1.70 1.79 1.24 2.36 1.78 0.98 0.49 0.18 0.07 0.03 0.04 0.02 0.00 0.00 0.00 0.01 0.01 0.01 0.01 0.00 0.00 0.00 0.00 0.01 0.01 0.01 0.03 0.05 0.04 0.01
0.00 0.00 0.00 0.00 0.00 0.00 0.00 0.00 0.00 0.04 0.13 0.19 0.31 0.33 0.34 0.60 0.46 0.48 0.50 0.62 0.41 0.39 0.79 1.84 1.47 0.91 0.56 0.23 0.17 0.16 0.20 0.06 0.01 0.02 0.00 0.01 0.04 0.04 0.02 0.01 0.00 0.00 0.01 0.02 0.04 0.06 0.05 0.04 0.01
0.00 0.00 0.00 0.00 0.00 0.00 0.00 0.00 0.06 0.08 0.16 0.16 0.15 0.30 0.93 0.95 0.59 0.63 0.78 1.03 0.86 0.96 0.81 0.69 0.84 1.03 1.05 0.53 0.35 0.30 0.21 0.11 0.05 0.06 0.01 0.00 0.03 0.02 0.04 0.02 0.01 0.01 0.02 0.04 0.05 0.05 0.05 0.03 0.00
0.00 0.00 0.00 0.00 0.00 0.00 0.00 0.01 0.03 0.05 0.07 0.04 0.04 0.41 0.45 0.84 0.84 0.75 1.15 1.68 2.34 2.24 1.89 1.46 1.03 1.05 1.51 1.41 0.76 0.38 0.19 0.16 0.12 0.11 0.04 0.02 0.03 0.02 0.02 0.01 0.01 0.04 0.05 0.07 0.06 0.04 0.04 0.02 0.01
0.00 0.00 0.00 0.00 0.00 0.00 0.00 0.02 0.09 0.23 0.23 0.20 0.09 0.55 0.40 0.28 0.41 0.78 1.56 2.38 3.59 3.77 3.05 2.81 3.34 2.80 2.06 2.58 1.72 0.99 0.72 0.53 0.38 0.11 0.02 0.02 0.03 0.03 0.01 0.01 0.01 0.05 0.05 0.05 0.04 0.03 0.03 0.01 0.00
0.00 0.00 0.00 0.00 0.00 0.00 0.00 0.02 0.12 0.43 0.35 0.19 0.16 0.46 0.37 0.43 0.23 0.73 1.65 3.58 5.67 5.54 4.48 4.79 4.59 4.25 4.61 2.69 3.27 3.22 2.66 1.81 0.86 0.41 0.20 0.12 0.14 0.08 0.05 0.02 0.02 0.04 0.04 0.02 0.01 0.01 0.00 0.00 0.00
0.00 0.00 0.00 0.00 0.00 0.03 0.15 0.14 0.22 0.31 0.27 0.18 0.53 1.08 0.56 0.54 0.49 0.68 1.66 2.91 4.10 6.57 8.14 8.36 7.57 5.71 5.01 3.63 2.74 3.88 5.23 5.76 5.11 2.92 2.01 1.16 0.76 0.34 0.21 0.13 0.06 0.04 0.02 0.00 0.00 0.00 0.00 0.00 0.00
0.00 0.00 0.00 0.00 0.01 0.03 0.07 0.13 0.16 0.17 0.23 0.55 0.68 0.73 0.72 1.07 0.81 0.91 1.05 1.06 1.60 4.79 6.70 7.63 8.94 8.46 3.90 2.77 2.16 2.89 4.37 5.90 6.69 5.69 4.42 2.42 1.58 1.13 0.53 0.37 0.17 0.04 0.00 0.00 0.00 0.00 0.00 0.00 0.00
0.00 0.00 0.00 0.00 0.03 0.10 0.24 0.18 0.09 0.11 0.18 0.29 0.39 0.68 0.95 0.89 0.49 0.54 0.84 0.94 1.46 2.64 3.34 4.89 7.54 6.16 3.45 1.92 1.50 1.78 3.45 3.51 3.11 3.10 3.99 2.95 2.01 1.43 0.79 0.49 0.33 0.10 0.00 0.00 0.00 0.00 0.00 0.00 0.00
0.00 0.00 0.00 0.01 0.02 0.10 0.16 0.21 0.09 0.13 0.42 0.67 0.42 0.82 1.15 1.09 0.75 0.64 0.60 0.88 1.35 1.41 1.71 1.91 3.61 4.18 2.92 1.74 1.40 1.11 1.76 2.63 3.07 1.77 1.88 1.82 1.75 1.38 0.60 0.46 0.39 0.16 0.00 0.00 0.00 0.00 0.00 0.00 0.00
0.00 0.00 0.00 0.02 0.10 0.02 0.05 0.08 0.06 0.12 0.57 0.92 0.94 0.74 0.83 0.72 1.09 0.99 0.48 0.42 0.76 0.94 0.83 0.97 1.49 1.80 2.25 1.81 1.47 1.34 1.25 1.28 2.87 1.88 0.90 0.95 1.13 0.99 0.67 0.37 0.35 0.15 0.02 0.00 0.00 0.00 0.00 0.00 0.00
0.00 0.00 0.00 0.01 0.05 0.01 0.04 0.06 0.04 0.21 0.45 0.36 0.38 0.38 0.31 0.40 0.85 0.76 0.43 0.60 0.49 0.39 0.37 0.58 0.60 0.67 0.95 1.28 1.24 0.93 1.02 1.09 1.34 1.71 0.76 0.55 0.80 0.42 0.41 0.23 0.17 0.07 0.01 0.00 0.00 0.00 0.00 0.00 0.00
0.00 0.00 0.00 0.00 0.00 0.03 0.01 0.02 0.04 0.04 0.10 0.04 0.11 0.19 0.28 0.41 0.46 0.31 0.15 0.18 0.22 0.21 0.33 0.32 0.36 0.30 0.47 0.67 0.93 0.90 0.63 0.74 0.79 1.11 0.82 0.39 0.37 0.23 0.24 0.13 0.09 0.03 0.00 0.00 0.00 0.00 0.00 0.00 0.00
0.00 0.00 0.00 0.00 0.00 0.01 0.02 0.02 0.06 0.21 0.06 0.02 0.06 0.22 0.38 0.35 0.20 0.07 0.06 0.10 0.17 0.30 0.32 0.28 0.34 0.29 0.39 0.69 0.78 0.93 0.84 0.65 0.73 0.68 0.62 0.38 0.29 0.21 0.15 0.08 0.04 0.01 0.00 0.00 0.00 0.00 0.00 0.00 0.00
0.00 0.00 0.00 0.00 0.00 0.02 0.07 0.12 0.13 0.13 0.01 0.01 0.03 0.10 0.11 0.17 0.08 0.01 0.01 0.03 0.15 0.41 0.24 0.28 0.33 0.44 0.43 0.45 0.53 0.82 0.88 0.70 0.58 0.47 0.45 0.36 0.27 0.17 0.09 0.05 0.03 0.00 0.00 0.00 0.00 0.00 0.00 0.00 0.00
0.00 0.00 0.01 0.01 0.00 0.01 0.12 0.46 0.07 0.08 0.08 0.04 0.03 0.07 0.06 0.02 0.01 0.00 0.00 0.00 0.03 0.30 0.52 0.20 0.23 0.65 0.52 0.45 0.41 0.56 0.82 0.82 0.60 0.44 0.39 0.26 0.14 0.07 0.06 0.06 0.04 0.00 0.00 0.00 0.00 0.00 0.00 0.00 0.00
0.00 0.00 0.00 0.01 0.01 0.01 0.10 0.45 0.09 0.08 0.22 0.09 0.04 0.01 0.00 0.00 0.00 0.00 0.00 0.00 0.01 0.05 0.48 0.53 0.33 0.42 0.60 0.62 0.48 0.46 0.61 0.72 0.59 0.41 0.57 0.39 0.19 0.08 0.09 0.14 0.11 0.02 0.02 0.00 0.00 0.00 0.00 0.00 0.00
0.00 0.00 0.00 0.00 0.00 0.00 0.01 0.12 0.23 0.06 0.09 0.30 0.05 0.02 0.00 0.00 0.00 0.01 0.01 0.01 0.03 0.03 0.05 0.35 0.47 0.41 0.42 0.44 0.32 0.40 0.52 0.69 0.49 0.36 0.70 0.56 0.27 0.18 0.10 0.05 0.05 0.03 0.03 0.00 0.00 0.00 0.00 0.00 0.00
0.00 0.00 0.00 0.00 0.00 0.00 0.00 0.02 0.10 0.15 0.04 0.06 0.04 0.14 0.05 0.01 0.02 0.03 0.02 0.02 0.01 0.06 0.04 0.10 0.25 0.22 0.36 0.33 0.20 0.27 0.33 0.52 0.36 0.39 0.37 0.71 0.43 0.33 0.11 0.04 0.03 0.02 0.05 0.01 0.01 0.00 0.00 0.00 0.00
0.00 0.00 0.00 0.00 0.00 0.00 0.00 0.00 0.02 0.07 0.01 0.01 0.01 0.14 0.03 0.01 0.01 0.01 0.00 0.00 0.01 0.05 0.04 0.02 0.04 0.10 0.19 0.24 0.24 0.11 0.12 0.19 0.27 0.33 0.38 0.40 0.40 0.26 0.16 0.09 0.05 0.04 0.05 0.02 0.01 0.00 0.00 0.00 0.00
0.00 0.00 0.00 0.00 0.00 0.00 0.00 0.00 0.02 0.02 0.02 0.06 0.01 0.00 0.00 0.00 0.00 0.00 0.00 0.00 0.01 0.01 0.01 0.02 0.02 0.04 0.06 0.14 0.24 0.16 0.20 0.17 0.21 0.36 0.56 0.33 0.20 0.15 0.17 0.11 0.06 0.04 0.04 0.02 0.01 0.00 0.00 0.00 0.00
0.00 0.00 0.00 0.00 0.00 0.00 0.00 0.01 0.09 0.03 0.01 0.04 0.02 0.00 0.01 0.00 0.00 0.00 0.01 0.01 0.02 0.03 0.03 0.06 0.04 0.03 0.02 0.04 0.07 0.06 0.12 0.12 0.13 0.13 0.26 0.40 0.17 0.15 0.30 0.17 0.08 0.02 0.02 0.04 0.05 0.02 0.02 0.02 0.01
0.01 0.00 0.00 0.00 0.00 0.01 0.01 0.00 0.08 0.01 0.01 0.01 0.01 0.00 0.01 0.01 0.00 0.00 0.01 0.01 0.02 0.04 0.04 0.03 0.04 0.05 0.03 0.03 0.03 0.04 0.07 0.09 0.06 0.03 0.05 0.26 0.35 0.17 0.19 0.22 0.14 0.07 0.07 0.11 0.18 0.13 0.13 0.14 0.21
0.00 0.01 0.00 0.00 0.00 0.01 0.02 0.02 0.04 0.01 0.00 0.02 0.02 0.01 0.01 0.02 0.03 0.04 0.05 0.02 0.03 0.05 0.05 0.06 0.05 0.05 0.08 0.09 0.08 0.04 0.09 0.07 0.04 0.04 0.06 0.10 0.21 0.38 0.33 0.32 0.29 0.23 0.23 0.31 0.42 0.46 0.28 0.19 0.19
0.02 0.06 0.05 0.05 0.01 0.01 0.00 0.01 0.02 0.02 0.05 0.12 0.10 0.01 0.02 0.00 0.00 0.01 0.02 0.02 0.02 0.06 0.04 0.03 0.06 0.16 0.13 0.10 0.09 0.10 0.08 0.08 0.07 0.10 0.20 0.22 0.21 0.40 0.38 0.34 0.33 0.29 0.37 0.42 0.41 0.46 0.38 0.35 0.30
0.01 0.05 0.08 0.13 0.07 0.05 0.03 0.01 0.01 0.01 0.01 0.00 0.00 0.00 0.00 0.00 0.00 0.01 0.03 0.05 0.06 0.04 0.03 0.02 0.08 0.19 0.22 0.16 0.13 0.16 0.20 0.20 0.22 0.28 0.42 0.45 0.34 0.31 0.45 0.45 0.50 0.42 0.33 0.35 0.37 0.41 0.44 0.44 0.44
0.07 0.09 0.06 0.13 0.09 0.06 0.06 0.00 0.00 0.00 0.00 0.00 0.00 0.00 0.00 0.01 0.04 0.05 0.02 0.03 0.06 0.05 0.05 0.09 0.10 0.09 0.14 0.17 0.17 0.22 0.28 0.32 0.43 0.46 0.37 0.37 0.27 0.16 0.22 0.31 0.34 0.33 0.48 0.62 0.65 0.61 0.52 0.52 0.40
0.06 0.15 0.29 0.31 0.23 0.10 0.00 0.01 0.01 0.01 0.00 0.00 0.00 0.00 0.00 0.00 0.00 0.00 0.01 0.00 0.01 0.01 0.06 0.07 0.03 0.06 0.12 0.16 0.17 0.27 0.41 0.42 0.41 0.33 0.43 0.38 0.37 0.39 0.46 0.46 0.49 0.55 0.59 0.64 0.58 0.45 0.35 0.34 0.27
0.06 0.24 0.37 0.23 0.05 0.06 0.06 0.08 0.02 0.01 0.00 0.00 0.00 0.00 0.00 0.00 0.00 0.00 0.01 0.01 0.01 0.01 0.03 0.09 0.15 0.35 0.35 0.43 0.53 0.45 0.47 0.62 0.69 0.63 0.60 0.58 0.55 0.55 0.58 0.60 0.52 0.39 0.31 0.34 0.41 0.43 0.47 0.46 0.40
0.02 0.04 0.14 0.36 0.19 0.03 0.07 0.19 0.07 0.01 0.00 0.00 0.00 0.00 0.00 0.00 0.00 0.00 0.00 0.01 0.02 0.05 0.04 0.04 0.11 0.21 0.39 0.45 0.68 0.92 0.77 1.05 1.56 1.62 1.26 1.48 1.49 1.15 0.90 0.68 0.45 0.30 0.19 0.13 0.13 0.19 0.21 0.24 0.29